Location: Doverdale
(52.2833°N, 2.2000°W)
Time: 02:57:01
(UTC+00:00)

Cosmos 1980 Rocket - Pass Details

Date: 05 March 2021
Orbit: 828 x 851 km, 71.0° (Epoch: 15 April)

Event Time Altitude Azimuth Distance (km) Brightness Sun altitude
Rises 23:41:09 0° 326° (NNW) 3,428 6.1 -42.7°
Reaches altitude 10° 23:44:23 10° 344° (NNW) 2,491 5.3 -42.8°
Enters shadow 23:46:39 17° 7° (N) 2,041 4.7 -42.9°
